Year,Month,Day,Hour,Minute,Value (Times are PST for temperature in C)
2017,10,28,00,00,8.10
2017,10,28,00,01,8.10
2017,10,28,00,02,8.10
2017,10,28,00,03,8.10
2017,10,28,00,04,8.10
2017,10,28,00,05,8.10
2017,10,28,00,06,8.10
2017,10,28,00,07,8.10
2017,10,28,00,08,8.10
2017,10,28,00,09,8.00
2017,10,28,00,10,8.00
2017,10,28,00,11,8.00
2017,10,28,00,12,8.00
2017,10,28,00,13,8.00
2017,10,28,00,14,8.00
2017,10,28,00,15,8.00
2017,10,28,00,16,8.00
2017,10,28,00,17,8.00
2017,10,28,00,18,8.00
2017,10,28,00,19,8.00
2017,10,28,00,20,8.00
2017,10,28,00,21,8.00
2017,10,28,00,22,8.10
2017,10,28,00,23,8.10
2017,10,28,00,24,8.10
2017,10,28,00,25,8.10
2017,10,28,00,26,8.10
2017,10,28,00,27,8.10
2017,10,28,00,28,8.10
2017,10,28,00,29,8.10
2017,10,28,00,30,8.10
2017,10,28,00,31,8.20
2017,10,28,00,32,8.20
2017,10,28,00,33,8.20
2017,10,28,00,34,8.20
2017,10,28,00,35,8.20
2017,10,28,00,36,8.20
2017,10,28,00,37,8.20
2017,10,28,00,38,8.20
2017,10,28,00,39,8.20
2017,10,28,00,40,8.20
2017,10,28,00,41,8.20
2017,10,28,00,42,8.20
2017,10,28,00,43,8.20
2017,10,28,00,44,8.20
2017,10,28,00,45,8.20
2017,10,28,00,46,8.20
2017,10,28,00,47,8.20
2017,10,28,00,48,8.20
2017,10,28,00,49,8.20
2017,10,28,00,50,8.20
2017,10,28,00,51,8.20
2017,10,28,00,52,8.20
2017,10,28,00,53,8.20
2017,10,28,00,54,8.20
2017,10,28,00,55,8.20
2017,10,28,00,56,8.20
2017,10,28,00,57,8.20
2017,10,28,00,58,8.20
2017,10,28,00,59,8.20
2017,10,28,01,00,8.20
2017,10,28,01,01,8.20
2017,10,28,01,02,8.20
2017,10,28,01,03,8.20
2017,10,28,01,04,8.20
2017,10,28,01,05,8.20
2017,10,28,01,06,8.20
2017,10,28,01,07,8.20
2017,10,28,01,08,8.20
2017,10,28,01,09,8.20
2017,10,28,01,10,8.20
2017,10,28,01,11,8.20
2017,10,28,01,12,8.10
2017,10,28,01,13,8.10
2017,10,28,01,14,8.10
2017,10,28,01,15,8.10
2017,10,28,01,16,8.10
2017,10,28,01,17,8.10
2017,10,28,01,18,8.10
2017,10,28,01,19,8.10
2017,10,28,01,20,8.10
2017,10,28,01,21,8.10
2017,10,28,01,22,8.10
2017,10,28,01,23,8.10
2017,10,28,01,24,8.10
2017,10,28,01,25,8.10
2017,10,28,01,26,8.10
2017,10,28,01,27,8.10
2017,10,28,01,28,8.10
2017,10,28,01,29,8.10
2017,10,28,01,30,8.10
2017,10,28,01,31,8.00
2017,10,28,01,32,8.00
2017,10,28,01,33,8.00
2017,10,28,01,34,8.00
2017,10,28,01,35,8.00
2017,10,28,01,36,8.00
2017,10,28,01,37,8.00
2017,10,28,01,38,7.90
2017,10,28,01,39,7.90
2017,10,28,01,40,7.90
2017,10,28,01,41,7.90
2017,10,28,01,42,7.90
2017,10,28,01,43,7.90
2017,10,28,01,44,7.90
2017,10,28,01,45,7.80
2017,10,28,01,46,7.80
2017,10,28,01,47,7.80
2017,10,28,01,48,7.80
2017,10,28,01,49,7.80
2017,10,28,01,50,7.80
2017,10,28,01,51,7.80
2017,10,28,01,52,7.80
2017,10,28,01,53,7.70
2017,10,28,01,54,7.70
2017,10,28,01,55,7.70
2017,10,28,01,56,7.70
2017,10,28,01,57,7.60
2017,10,28,01,58,7.60
2017,10,28,01,59,7.60
2017,10,28,02,00,7.50
2017,10,28,02,01,7.50
2017,10,28,02,02,7.50
2017,10,28,02,03,7.50
2017,10,28,02,04,7.50
2017,10,28,02,05,7.50
2017,10,28,02,06,7.50
2017,10,28,02,07,7.50
2017,10,28,02,08,7.50
2017,10,28,02,09,7.50
2017,10,28,02,10,7.50
2017,10,28,02,11,7.60
2017,10,28,02,12,7.60
2017,10,28,02,13,7.60
2017,10,28,02,14,7.70
2017,10,28,02,15,7.70
2017,10,28,02,16,7.70
2017,10,28,02,17,7.70
2017,10,28,02,18,7.80
2017,10,28,02,19,7.80
2017,10,28,02,20,7.80
2017,10,28,02,21,7.80
2017,10,28,02,22,7.80
2017,10,28,02,23,7.80
2017,10,28,02,24,7.80
2017,10,28,02,25,7.80
2017,10,28,02,26,7.80
2017,10,28,02,27,7.80
2017,10,28,02,28,7.80
2017,10,28,02,29,7.80
2017,10,28,02,30,7.80
2017,10,28,02,31,7.80
2017,10,28,02,32,7.80
2017,10,28,02,33,7.80
2017,10,28,02,34,7.80
2017,10,28,02,35,7.80
2017,10,28,02,36,7.80
2017,10,28,02,37,7.80
2017,10,28,02,38,7.80
2017,10,28,02,39,7.80
2017,10,28,02,40,7.80
2017,10,28,02,41,7.80
2017,10,28,02,42,7.80
2017,10,28,02,43,7.80
2017,10,28,02,44,7.70
2017,10,28,02,45,7.70
2017,10,28,02,46,7.70
2017,10,28,02,47,7.70
2017,10,28,02,48,7.70
2017,10,28,02,49,7.70
2017,10,28,02,50,7.70
2017,10,28,02,51,7.70
2017,10,28,02,52,7.60
2017,10,28,02,53,7.60
2017,10,28,02,54,7.60
2017,10,28,02,55,7.60
2017,10,28,02,56,7.60
2017,10,28,02,57,7.60
2017,10,28,02,58,7.60
2017,10,28,02,59,7.50
2017,10,28,03,00,7.50
2017,10,28,03,01,7.50
2017,10,28,03,02,7.50
2017,10,28,03,03,7.50
2017,10,28,03,04,7.50
2017,10,28,03,05,7.40
2017,10,28,03,06,7.40
2017,10,28,03,07,7.40
2017,10,28,03,08,7.40
2017,10,28,03,09,7.40
2017,10,28,03,10,7.40
2017,10,28,03,11,7.40
2017,10,28,03,12,7.40
2017,10,28,03,13,7.40
2017,10,28,03,14,7.40
2017,10,28,03,15,7.50
2017,10,28,03,16,7.50
2017,10,28,03,17,7.50
2017,10,28,03,18,7.50
2017,10,28,03,19,7.50
2017,10,28,03,20,7.50
2017,10,28,03,21,7.50
2017,10,28,03,22,7.50
2017,10,28,03,23,7.50
2017,10,28,03,24,7.50
2017,10,28,03,25,7.40
2017,10,28,03,26,7.40
2017,10,28,03,27,7.40
2017,10,28,03,28,7.40
2017,10,28,03,29,7.40
2017,10,28,03,30,7.40
2017,10,28,03,31,7.40
2017,10,28,03,32,7.40
2017,10,28,03,33,7.40
2017,10,28,03,34,7.40
2017,10,28,03,35,7.40
2017,10,28,03,36,7.40
2017,10,28,03,37,7.40
2017,10,28,03,38,7.40
2017,10,28,03,39,7.40
2017,10,28,03,40,7.40
2017,10,28,03,41,7.40
2017,10,28,03,42,7.40
2017,10,28,03,43,7.40
2017,10,28,03,44,7.40
2017,10,28,03,45,7.40
2017,10,28,03,46,7.40
2017,10,28,03,47,7.40
2017,10,28,03,48,7.40
2017,10,28,03,49,7.40
2017,10,28,03,50,7.50
2017,10,28,03,51,7.50
2017,10,28,03,52,7.50
2017,10,28,03,53,7.50
2017,10,28,03,54,7.50
2017,10,28,03,55,7.50
2017,10,28,03,56,7.50
2017,10,28,03,57,7.60
2017,10,28,03,58,7.60
2017,10,28,03,59,7.60
2017,10,28,04,00,7.60
2017,10,28,04,01,7.60
2017,10,28,04,02,7.50
2017,10,28,04,03,7.60
2017,10,28,04,04,7.60
2017,10,28,04,05,7.60
2017,10,28,04,06,7.60
2017,10,28,04,07,7.60
2017,10,28,04,08,7.60
2017,10,28,04,09,7.60
2017,10,28,04,10,7.60
2017,10,28,04,11,7.60
2017,10,28,04,12,7.60
2017,10,28,04,13,7.60
2017,10,28,04,14,7.60
2017,10,28,04,15,7.60
2017,10,28,04,16,7.60
2017,10,28,04,17,7.60
2017,10,28,04,18,7.50
2017,10,28,04,19,7.50
2017,10,28,04,20,7.50
2017,10,28,04,21,7.50
2017,10,28,04,22,7.50
2017,10,28,04,23,7.40
2017,10,28,04,24,7.40
2017,10,28,04,25,7.40
2017,10,28,04,26,7.30
2017,10,28,04,27,7.30
2017,10,28,04,28,7.30
2017,10,28,04,29,7.30
2017,10,28,04,30,7.30
2017,10,28,04,31,7.40
2017,10,28,04,32,7.40
2017,10,28,04,33,7.40
2017,10,28,04,34,7.50
2017,10,28,04,35,7.50
2017,10,28,04,36,7.50
2017,10,28,04,37,7.60
2017,10,28,04,38,7.60
2017,10,28,04,39,7.60
2017,10,28,04,40,7.70
2017,10,28,04,41,7.70
2017,10,28,04,42,7.80
2017,10,28,04,43,7.80
2017,10,28,04,44,7.80
2017,10,28,04,45,7.80
2017,10,28,04,46,7.80
2017,10,28,04,47,7.90
2017,10,28,04,48,7.90
2017,10,28,04,49,7.90
2017,10,28,04,50,7.90
2017,10,28,04,51,7.90
2017,10,28,04,52,7.90
2017,10,28,04,53,7.90
2017,10,28,04,54,7.90
2017,10,28,04,55,7.90
2017,10,28,04,56,7.90
2017,10,28,04,57,7.90
2017,10,28,04,58,7.90
2017,10,28,04,59,7.90
2017,10,28,05,00,7.90
2017,10,28,05,01,7.90
2017,10,28,05,02,7.90
2017,10,28,05,03,7.90
2017,10,28,05,04,7.90
2017,10,28,05,05,7.90
2017,10,28,05,06,7.90
2017,10,28,05,07,7.90
2017,10,28,05,08,7.90
2017,10,28,05,09,7.90
2017,10,28,05,10,7.90
2017,10,28,05,11,7.80
2017,10,28,05,12,7.80
2017,10,28,05,13,7.80
2017,10,28,05,14,7.80
2017,10,28,05,15,7.80
2017,10,28,05,16,7.90
2017,10,28,05,17,7.90
2017,10,28,05,18,7.90
2017,10,28,05,19,7.90
2017,10,28,05,20,7.90
2017,10,28,05,21,7.90
2017,10,28,05,22,7.90
2017,10,28,05,23,7.90
2017,10,28,05,24,7.80
2017,10,28,05,25,7.80
2017,10,28,05,26,7.80
2017,10,28,05,27,7.80
2017,10,28,05,28,7.80
2017,10,28,05,29,7.80
2017,10,28,05,30,7.80
2017,10,28,05,31,7.80
2017,10,28,05,32,7.80
2017,10,28,05,33,7.80
2017,10,28,05,34,7.80
2017,10,28,05,35,7.80
2017,10,28,05,36,7.80
2017,10,28,05,37,7.80
2017,10,28,05,38,7.80
2017,10,28,05,39,7.80
2017,10,28,05,40,7.80
2017,10,28,05,41,7.80
2017,10,28,05,42,7.80
2017,10,28,05,43,7.80
2017,10,28,05,44,7.80
2017,10,28,05,45,7.80
2017,10,28,05,46,7.80
2017,10,28,05,47,7.70
2017,10,28,05,48,7.70
2017,10,28,05,49,7.70
2017,10,28,05,50,7.70
2017,10,28,05,51,7.70
2017,10,28,05,52,7.70
2017,10,28,05,53,7.70
2017,10,28,05,54,7.60
2017,10,28,05,55,7.60
2017,10,28,05,56,7.60
2017,10,28,05,57,7.60
2017,10,28,05,58,7.60
2017,10,28,05,59,7.60
2017,10,28,06,00,7.60
2017,10,28,06,01,7.60
2017,10,28,06,02,7.60
2017,10,28,06,03,7.50
2017,10,28,06,04,7.50
2017,10,28,06,05,7.50
2017,10,28,06,06,7.40
2017,10,28,06,07,7.40
2017,10,28,06,08,7.40
2017,10,28,06,09,7.40
2017,10,28,06,10,7.40
2017,10,28,06,11,7.30
2017,10,28,06,12,7.30
2017,10,28,06,13,7.30
2017,10,28,06,14,7.30
2017,10,28,06,15,7.30
2017,10,28,06,16,7.20
2017,10,28,06,17,7.20
2017,10,28,06,18,7.20
2017,10,28,06,19,7.20
2017,10,28,06,20,7.10
2017,10,28,06,21,7.10
2017,10,28,06,22,7.10
2017,10,28,06,23,7.10
2017,10,28,06,24,7.10
2017,10,28,06,25,7.10
2017,10,28,06,26,7.10
2017,10,28,06,27,7.00
2017,10,28,06,28,7.00
2017,10,28,06,29,7.00
2017,10,28,06,30,7.00
2017,10,28,06,31,7.00
2017,10,28,06,32,7.00
2017,10,28,06,33,7.00
2017,10,28,06,34,7.00
2017,10,28,06,35,7.00
2017,10,28,06,36,7.00
2017,10,28,06,37,7.00
2017,10,28,06,38,7.00
2017,10,28,06,39,7.00
2017,10,28,06,40,7.00
2017,10,28,06,41,7.00
2017,10,28,06,42,7.00
2017,10,28,06,43,7.00
2017,10,28,06,44,7.00
2017,10,28,06,45,7.00
2017,10,28,06,46,7.00
2017,10,28,06,47,7.00
2017,10,28,06,48,7.00
2017,10,28,06,49,7.00
2017,10,28,06,50,7.10
2017,10,28,06,51,7.10
2017,10,28,06,52,7.10
2017,10,28,06,53,7.10
2017,10,28,06,54,7.20
2017,10,28,06,55,7.20
2017,10,28,06,56,7.20
2017,10,28,06,57,7.20
2017,10,28,06,58,7.30
2017,10,28,06,59,7.30
2017,10,28,07,00,7.30
2017,10,28,07,01,7.30
2017,10,28,07,02,7.30
2017,10,28,07,03,7.30
2017,10,28,07,04,7.30
2017,10,28,07,05,7.30
2017,10,28,07,06,7.30
2017,10,28,07,07,7.30
2017,10,28,07,08,7.30
2017,10,28,07,09,7.30
2017,10,28,07,10,7.30
2017,10,28,07,11,7.30
2017,10,28,07,12,7.30
2017,10,28,07,13,7.20
2017,10,28,07,14,7.20
2017,10,28,07,15,7.20
2017,10,28,07,16,7.20
2017,10,28,07,17,7.20
2017,10,28,07,18,7.20
2017,10,28,07,19,7.20
2017,10,28,07,20,7.10
2017,10,28,07,21,7.10
2017,10,28,07,22,7.10
2017,10,28,07,23,7.10
2017,10,28,07,24,7.10
2017,10,28,07,25,7.10
2017,10,28,07,26,7.10
2017,10,28,07,27,7.10
2017,10,28,07,28,7.10
2017,10,28,07,29,7.10
2017,10,28,07,30,7.10
2017,10,28,07,31,7.10
2017,10,28,07,32,7.10
2017,10,28,07,33,7.10
2017,10,28,07,34,7.10
2017,10,28,07,35,7.10
2017,10,28,07,36,7.10
2017,10,28,07,37,7.10
2017,10,28,07,38,7.10
2017,10,28,07,39,7.10
2017,10,28,07,40,7.10
2017,10,28,07,41,7.10
2017,10,28,07,42,7.00
2017,10,28,07,43,7.00
2017,10,28,07,44,7.00
2017,10,28,07,45,7.00
2017,10,28,07,46,7.00
2017,10,28,07,47,7.00
2017,10,28,07,48,7.00
2017,10,28,07,49,7.00
2017,10,28,07,50,7.10
2017,10,28,07,51,7.10
2017,10,28,07,52,7.10
2017,10,28,07,53,7.10
2017,10,28,07,54,7.10
2017,10,28,07,55,7.10
2017,10,28,07,56,7.10
2017,10,28,07,57,7.10
2017,10,28,07,58,7.10
2017,10,28,07,59,7.10
2017,10,28,08,00,7.10
2017,10,28,08,01,7.20
2017,10,28,08,02,7.20
2017,10,28,08,03,7.20
2017,10,28,08,04,7.20
2017,10,28,08,05,7.30
2017,10,28,08,06,7.30
2017,10,28,08,07,7.30
2017,10,28,08,08,7.30
2017,10,28,08,09,7.30
2017,10,28,08,10,7.40
2017,10,28,08,11,7.40
2017,10,28,08,12,7.40
2017,10,28,08,13,7.40
2017,10,28,08,14,7.40
2017,10,28,08,15,7.40
2017,10,28,08,16,7.40
2017,10,28,08,17,7.50
2017,10,28,08,18,7.50
2017,10,28,08,19,7.50
2017,10,28,08,20,7.60
2017,10,28,08,21,7.60
2017,10,28,08,22,7.60
2017,10,28,08,23,7.60
2017,10,28,08,24,7.60
2017,10,28,08,25,7.60
2017,10,28,08,26,7.60
2017,10,28,08,27,7.60
2017,10,28,08,28,7.60
2017,10,28,08,29,7.60
2017,10,28,08,30,7.60
2017,10,28,08,31,7.60
2017,10,28,08,32,7.60
2017,10,28,08,33,7.60
2017,10,28,08,34,7.60
2017,10,28,08,35,7.60
2017,10,28,08,36,7.60
2017,10,28,08,37,7.50
2017,10,28,08,38,7.50
2017,10,28,08,39,7.60
2017,10,28,08,40,7.50
2017,10,28,08,41,7.50
2017,10,28,08,42,7.50
2017,10,28,08,43,7.50
2017,10,28,08,44,7.50
2017,10,28,08,45,7.50
2017,10,28,08,46,7.50
2017,10,28,08,47,7.50
2017,10,28,08,48,7.50
2017,10,28,08,49,7.40
2017,10,28,08,50,7.40
2017,10,28,08,51,7.40
2017,10,28,08,52,7.40
2017,10,28,08,53,7.40
2017,10,28,08,54,7.40
2017,10,28,08,55,7.40
2017,10,28,08,56,7.40
2017,10,28,08,57,7.40
2017,10,28,08,58,7.30
2017,10,28,08,59,7.30
2017,10,28,09,00,7.30
2017,10,28,09,01,7.40
2017,10,28,09,02,7.40
2017,10,28,09,03,7.40
2017,10,28,09,04,7.40
2017,10,28,09,05,7.50
2017,10,28,09,06,7.50
2017,10,28,09,07,7.50
2017,10,28,09,08,7.60
2017,10,28,09,09,7.60
2017,10,28,09,10,7.60
2017,10,28,09,11,7.70
2017,10,28,09,12,7.70
2017,10,28,09,13,7.70
2017,10,28,09,14,7.80
2017,10,28,09,15,7.80
2017,10,28,09,16,7.90
2017,10,28,09,17,8.00
2017,10,28,09,18,8.10
2017,10,28,09,19,8.10
2017,10,28,09,20,8.20
2017,10,28,09,21,8.20
2017,10,28,09,22,8.30
2017,10,28,09,23,8.30
2017,10,28,09,24,8.30
2017,10,28,09,25,8.30
2017,10,28,09,26,8.30
2017,10,28,09,27,8.30
2017,10,28,09,28,8.30
2017,10,28,09,29,8.40
2017,10,28,09,30,8.40
2017,10,28,09,31,8.40
2017,10,28,09,32,8.40
2017,10,28,09,33,8.40
2017,10,28,09,34,8.40
2017,10,28,09,35,8.40
2017,10,28,09,36,8.40
2017,10,28,09,37,8.40
2017,10,28,09,38,8.40
2017,10,28,09,39,8.40
2017,10,28,09,40,8.40
2017,10,28,09,41,8.40
2017,10,28,09,42,8.40
2017,10,28,09,43,8.50
2017,10,28,09,44,8.60
2017,10,28,09,45,8.60
2017,10,28,09,46,8.70
2017,10,28,09,47,8.80
2017,10,28,09,48,8.80
2017,10,28,09,49,8.90
2017,10,28,09,50,9.10
2017,10,28,09,51,9.20
2017,10,28,09,52,9.20
2017,10,28,09,53,9.30
2017,10,28,09,54,9.40
2017,10,28,09,55,9.40
2017,10,28,09,56,9.50
2017,10,28,09,57,9.50
2017,10,28,09,58,9.60
2017,10,28,09,59,9.60
2017,10,28,10,00,9.70
2017,10,28,10,01,9.70
2017,10,28,10,02,9.80
2017,10,28,10,03,9.80
2017,10,28,10,04,9.80
2017,10,28,10,05,9.80
2017,10,28,10,06,9.80
2017,10,28,10,07,9.80
2017,10,28,10,08,9.80
2017,10,28,10,09,9.80
2017,10,28,10,10,9.80
2017,10,28,10,11,9.80
2017,10,28,10,12,9.80
2017,10,28,10,13,9.70
2017,10,28,10,14,9.70
2017,10,28,10,15,9.70
2017,10,28,10,16,9.70
2017,10,28,10,17,9.70
2017,10,28,10,18,9.70
2017,10,28,10,19,9.70
2017,10,28,10,20,9.70
2017,10,28,10,21,9.70
2017,10,28,10,22,9.70
2017,10,28,10,23,9.70
2017,10,28,10,24,9.80
2017,10,28,10,25,9.80
2017,10,28,10,26,9.80
2017,10,28,10,27,9.80
2017,10,28,10,28,9.80
2017,10,28,10,29,9.80
2017,10,28,10,30,9.90
2017,10,28,10,31,9.90
2017,10,28,10,32,9.90
2017,10,28,10,33,9.90
2017,10,28,10,34,9.90
2017,10,28,10,35,10.00
2017,10,28,10,36,10.00
2017,10,28,10,37,10.00
2017,10,28,10,38,10.10
2017,10,28,10,39,10.10
